WXM80 ListenWXM80 Stop

You find our weather info also at:

UK Metoffice

WeatherCloud

Weather Underground

Northeastern Weather Network

AWEKAS

Citizen Weather Observer Program (CWOP)

HAMweather, WeatherForYou, PWS Weather


Weather Underground History page Text

Daily Summary for December 22, 2016 Units:  English    Metric   Both
« Previous Day
Next Day »
Daily Weekly Monthly Yearly Custom
  High: Low: Average:
Temperature: 49.0 °F 31.8 °F 40.1 °F
Dew Point: 35.9 °F 25.6 °F 30.1 °F
Humidity: 82 % 51 % 68 %
Wind Speed: 10.3 mph 0.0 mph 3.2 mph
Wind Gust: 29.0 mph - -
Wind:- - West
Pressure: 30.15 in 29.86 in -
Precipitation: 0.00 in    
Historical Graphs
 
 
Tabular Data for December 22, 2016
Time Temperature Dew Point Pressure Wind Wind Speed Wind Gust Humidity Rainfall Rate (Hourly)
00:02 35.4 °F 26.6 °F 30.13 in SW 0.2 mph 29.0 mph 70 % 0.00 in
00:08 35.4 °F 26.6 °F 30.13 in Calm   29.0 mph 70 % 0.00 in
00:13 35.4 °F 26.6 °F 30.13 in SW 0.9 mph 29.0 mph 70 % 0.00 in
00:23 35.3 °F 26.1 °F 30.13 in Calm   29.0 mph 69 % 0.00 in
00:28 35.3 °F 26.5 °F 30.13 in Calm   29.0 mph 70 % 0.00 in
00:33 35.3 °F 26.5 °F 30.13 in Calm   29.0 mph 70 % 0.00 in
00:38 35.3 °F 26.5 °F 30.12 in Calm   29.0 mph 70 % 0.00 in
00:43 35.2 °F 26.4 °F 30.12 in Calm   29.0 mph 70 % 0.00 in
00:48 35.2 °F 26.4 °F 30.12 in Calm   29.0 mph 70 % 0.00 in
00:53 35.1 °F 26.3 °F 30.12 in Calm   29.0 mph 70 % 0.00 in
00:58 35.0 °F 26.2 °F 30.11 in Calm   29.0 mph 70 % 0.00 in
01:03 34.9 °F 26.4 °F 30.12 in Calm   29.0 mph 71 % 0.00 in
01:08 34.8 °F 26.4 °F 30.12 in Calm   29.0 mph 71 % 0.00 in
01:13 34.7 °F 26.3 °F 30.11 in Calm   29.0 mph 71 % 0.00 in
01:19 34.6 °F 26.2 °F 30.11 in Calm   29.0 mph 71 % 0.00 in
01:24 34.5 °F 26.1 °F 30.11 in Calm   29.0 mph 71 % 0.00 in
01:29 34.4 °F 26.0 °F 30.11 in Calm   29.0 mph 71 % 0.00 in
01:34 34.4 °F 26.0 °F 30.11 in Calm   29.0 mph 71 % 0.00 in
01:39 34.3 °F 25.9 °F 30.11 in Calm   29.0 mph 71 % 0.00 in
01:44 34.3 °F 25.9 °F 30.11 in SW 0.2 mph 29.0 mph 71 % 0.00 in
01:49 34.2 °F 25.8 °F 30.11 in Calm   29.0 mph 71 % 0.00 in
01:54 34.2 °F 25.8 °F 30.11 in SW 0.1 mph 29.0 mph 71 % 0.00 in
01:59 34.2 °F 25.8 °F 30.11 in SW 0.4 mph 29.0 mph 71 % 0.00 in
02:04 34.2 °F 25.8 °F 30.11 in SW 1.3 mph 29.0 mph 71 % 0.00 in
02:09 34.1 °F 26.0 °F 30.11 in Calm   29.0 mph 72 % 0.00 in
02:14 34.1 °F 26.0 °F 30.10 in Calm   29.0 mph 72 % 0.00 in
02:19 34.1 °F 26.0 °F 30.11 in SW 0.1 mph 29.0 mph 72 % 0.00 in
02:24 34.0 °F 25.9 °F 30.10 in Calm     72 % 0.00 in
02:29 33.9 °F 25.8 °F 30.10 in Calm     72 % 0.00 in
02:34 33.8 °F 25.7 °F 30.10 in Calm     72 % 0.00 in
02:39 33.7 °F 26.0 °F 30.10 in Calm     73 % 0.00 in
02:44 33.5 °F 25.8 °F 30.10 in Calm   29.0 mph 73 % 0.00 in
02:49 33.4 °F 25.7 °F 30.10 in Calm     73 % 0.00 in
02:54 33.3 °F 25.6 °F 30.10 in Calm     73 % 0.00 in
02:59 33.2 °F 25.8 °F 30.09 in Calm   29.0 mph 74 % 0.00 in
03:04 33.1 °F 26.0 °F 30.09 in Calm   29.0 mph 75 % 0.00 in
03:10 33.0 °F 25.9 °F 30.09 in Calm   29.0 mph 75 % 0.00 in
03:15 32.9 °F 25.8 °F 30.09 in Calm   29.0 mph 75 % 0.00 in
03:20 32.9 °F 26.2 °F 30.09 in SW 0.1 mph 29.0 mph 76 % 0.00 in
03:25 32.8 °F 26.1 °F 30.09 in Calm   29.0 mph 76 % 0.00 in
03:30 32.7 °F 26.3 °F 30.09 in Calm   29.0 mph 77 % 0.00 in
03:35 32.6 °F 26.2 °F 30.09 in Calm   29.0 mph 77 % 0.00 in
03:40 32.6 °F 26.2 °F 30.08 in Calm   29.0 mph 77 % 0.00 in
03:45 32.5 °F 26.1 °F 30.07 in Calm   29.0 mph 77 % 0.00 in
03:50 32.5 °F 26.1 °F 30.07 in Calm   29.0 mph 77 % 0.00 in
03:55 32.4 °F 26.3 °F 30.07 in Calm   29.0 mph 78 % 0.00 in
04:00 32.4 °F 26.3 °F 30.07 in Calm   29.0 mph 78 % 0.00 in
04:05 32.3 °F 26.5 °F 30.06 in Calm   29.0 mph 79 % 0.00 in
04:10 32.2 °F 26.4 °F 30.06 in Calm   29.0 mph 79 % 0.00 in
04:15 32.1 °F 26.3 °F 30.06 in Calm   29.0 mph 79 % 0.00 in
04:20 32.0 °F 26.2 °F 30.06 in Calm   29.0 mph 79 % 0.00 in
04:26 32.0 °F 26.2 °F 30.07 in Calm   29.0 mph 79 % 0.00 in
04:31 31.9 °F 26.4 °F 30.06 in Calm   29.0 mph 80 % 0.00 in
04:36 31.8 °F 26.0 °F 30.05 in Calm   29.0 mph 79 % 0.00 in
04:41 31.8 °F 26.3 °F 30.05 in Calm   29.0 mph 80 % 0.00 in
04:46 31.8 °F 26.6 °F 30.05 in Calm   29.0 mph 81 % 0.00 in
04:51 31.8 °F 26.6 °F 30.05 in Calm   29.0 mph 81 % 0.00 in
04:56 31.9 °F 27.0 °F 30.05 in Calm   29.0 mph 82 % 0.00 in
05:01 31.9 °F 27.0 °F 30.05 in Calm   29.0 mph 82 % 0.00 in
05:06 31.9 °F 27.0 °F 30.06 in SW 1.1 mph 29.0 mph 82 % 0.00 in
05:11 32.0 °F 27.1 °F 30.06 in SW 1.8 mph 29.0 mph 82 % 0.00 in
05:16 32.1 °F 26.9 °F 30.06 in SW 2.6 mph 29.0 mph 81 % 0.00 in
05:21 32.4 °F 26.9 °F 30.06 in SW 4.7 mph 29.0 mph 80 % 0.00 in
05:26 32.8 °F 26.7 °F 30.05 in SSW 1.0 mph 29.0 mph 78 % 0.00 in
05:31 33.1 °F 26.7 °F 30.05 in SSW 1.8 mph 29.0 mph 77 % 0.00 in
05:36 33.4 °F 26.6 °F 30.05 in SSW 2.0 mph 29.0 mph 76 % 0.00 in
05:41 33.7 °F 26.6 °F 30.06 in SW 0.1 mph 29.0 mph 75 % 0.00 in
05:46 34.0 °F 26.6 °F 30.05 in SW 0.3 mph 29.0 mph 74 % 0.00 in
05:51 34.3 °F 26.5 °F 30.05 in Calm   29.0 mph 73 % 0.00 in
05:56 34.6 °F 26.8 °F 30.04 in SW 0.5 mph 29.0 mph 73 % 0.00 in
06:01 34.9 °F 26.8 °F 30.04 in Calm   29.0 mph 72 % 0.00 in
06:07 35.0 °F 26.9 °F 30.03 in Calm   29.0 mph 72 % 0.00 in
06:12 35.2 °F 27.1 °F 30.03 in SW 0.1 mph 29.0 mph 72 % 0.00 in
06:17 35.3 °F 27.2 °F 30.03 in Calm   29.0 mph 72 % 0.00 in
06:22 35.4 °F 27.3 °F 30.03 in Calm   29.0 mph 72 % 0.00 in
06:27 35.4 °F 27.3 °F 30.04 in SW 0.4 mph 29.0 mph 72 % 0.00 in
06:32 35.5 °F 27.4 °F 30.03 in Calm   29.0 mph 72 % 0.00 in
06:37 35.5 °F 27.7 °F 30.04 in SW 0.2 mph 29.0 mph 73 % 0.00 in
06:42 35.5 °F 27.7 °F 30.04 in Calm   29.0 mph 73 % 0.00 in
06:47 35.5 °F 27.7 °F 30.03 in Calm   29.0 mph 73 % 0.00 in
06:52 35.6 °F 27.8 °F 30.03 in Calm   29.0 mph 73 % 0.00 in
06:57 35.6 °F 28.1 °F 30.03 in Calm   29.0 mph 74 % 0.00 in
07:02 35.6 °F 28.5 °F 30.02 in SW 0.9 mph 29.0 mph 75 % 0.00 in
07:07 35.7 °F 28.2 °F 30.02 in SW 0.1 mph 29.0 mph 74 % 0.00 in
07:13 35.7 °F 28.2 °F 30.01 in Calm   29.0 mph 74 % 0.00 in
07:18 35.7 °F 28.2 °F 30.01 in Calm   29.0 mph 74 % 0.00 in
07:23 35.7 °F 28.6 °F 30.01 in South 1.2 mph 29.0 mph 75 % 0.00 in
07:28 35.8 °F 28.6 °F 30.00 in South 0.5 mph 29.0 mph 75 % 0.00 in
07:33 35.9 °F 29.1 °F 30.01 in South 0.7 mph 29.0 mph 76 % 0.00 in
07:38 36.1 °F 29.3 °F 30.01 in South 0.4 mph 29.0 mph 76 % 0.00 in
07:43 36.2 °F 29.4 °F 30.01 in South 0.2 mph 29.0 mph 76 % 0.00 in
07:48 36.3 °F 29.5 °F 30.01 in South 0.1 mph 29.0 mph 76 % 0.00 in
07:53 36.5 °F 29.7 °F 30.01 in Calm   29.0 mph 76 % 0.00 in
07:58 36.7 °F 29.8 °F 30.00 in South 0.3 mph 29.0 mph 76 % 0.00 in
08:03 36.9 °F 30.0 °F 30.00 in South 0.6 mph 29.0 mph 76 % 0.00 in
08:08 37.0 °F 30.1 °F 30.00 in Calm   29.0 mph 76 % 0.00 in
08:14 37.1 °F 30.2 °F 30.00 in Calm   29.0 mph 76 % 0.00 in
08:19 37.2 °F 30.3 °F 30.00 in Calm   29.0 mph 76 % 0.00 in
08:24 37.4 °F 30.5 °F 29.99 in South 0.3 mph 29.0 mph 76 % 0.00 in
08:29 37.6 °F 30.7 °F 29.99 in Calm   29.0 mph 76 % 0.00 in
08:34 37.7 °F 30.8 °F 29.99 in Calm   29.0 mph 76 % 0.00 in
08:39 37.8 °F 30.9 °F 29.98 in South 1.2 mph 29.0 mph 76 % 0.00 in
08:44 37.9 °F 31.0 °F 29.98 in SSE 1.6 mph 29.0 mph 76 % 0.00 in
08:49 38.0 °F 31.4 °F 29.97 in SSE 1.3 mph 29.0 mph 77 % 0.00 in
08:54 38.3 °F 31.7 °F 29.97 in SSE 0.1 mph 29.0 mph 77 % 0.00 in
08:59 38.6 °F 32.0 °F 29.97 in SSE 1.0 mph 29.0 mph 77 % 0.00 in
09:04 38.9 °F 32.3 °F 29.97 in SSE 1.4 mph 29.0 mph 77 % 0.00 in
09:09 39.1 °F 32.8 °F 29.96 in Calm   3.0 mph 78 % 0.00 in
09:14 39.4 °F 33.1 °F 29.96 in SSE 1.0 mph 3.0 mph 78 % 0.00 in
09:19 39.7 °F 33.7 °F 29.95 in SSE 1.0 mph 5.0 mph 79 % 0.00 in
09:24 40.1 °F 34.1 °F 29.95 in SSE 2.0 mph 29.0 mph 79 % 0.00 in
09:29 40.5 °F 34.5 °F 29.94 in SE 2.0 mph 5.0 mph 79 % 0.00 in
09:34 40.8 °F 34.8 °F 29.94 in SSE 1.0 mph 7.0 mph 79 % 0.00 in
09:39 41.1 °F 34.8 °F 29.93 in SSE 2.0 mph 5.0 mph 78 % 0.00 in
09:44 41.5 °F 35.2 °F 29.93 in SSE 2.0 mph 6.0 mph 78 % 0.00 in
09:49 42.0 °F 35.3 °F 29.93 in South 3.0 mph 7.0 mph 77 % 0.00 in
09:54 42.2 °F 35.5 °F 29.94 in SSW 2.0 mph 6.0 mph 77 % 0.00 in
09:59 42.7 °F 35.7 °F 29.93 in South 3.6 mph 29.0 mph 76 % 0.00 in
10:04 43.2 °F 35.8 °F 29.93 in South 1.5 mph 29.0 mph 75 % 0.00 in
10:10 43.6 °F 35.9 °F 29.93 in SW 2.8 mph 29.0 mph 74 % 0.00 in
10:15 44.1 °F 35.6 °F 29.93 in SSW 1.3 mph 29.0 mph 72 % 0.00 in
10:20 44.5 °F 35.3 °F 29.93 in South 3.9 mph 29.0 mph 70 % 0.00 in
10:25 45.1 °F 35.2 °F 29.93 in SW 3.9 mph 29.0 mph 68 % 0.00 in
10:30 45.5 °F 35.2 °F 29.93 in SSW 4.5 mph 29.0 mph 67 % 0.00 in
10:35 46.1 °F 35.4 °F 29.92 in SSW 5.6 mph 29.0 mph 66 % 0.00 in
10:40 46.7 °F 35.2 °F 29.93 in SSW 3.6 mph 29.0 mph 64 % 0.00 in
10:45 47.2 °F 35.6 °F 29.93 in SW 7.1 mph 29.0 mph 64 % 0.00 in
10:50 47.6 °F 35.6 °F 29.93 in SSW 6.2 mph 29.0 mph 63 % 0.00 in
10:55 48.0 °F 35.6 °F 29.92 in South 6.3 mph 29.0 mph 62 % 0.00 in
11:00 48.3 °F 35.0 °F 29.92 in SW 6.3 mph 29.0 mph 60 % 0.00 in
11:05 48.5 °F 34.8 °F 29.91 in West 4.4 mph 29.0 mph 59 % 0.00 in
11:10 48.7 °F 34.6 °F 29.91 in SSW 7.1 mph 29.0 mph 58 % 0.00 in
11:15 48.8 °F 33.8 °F 29.91 in South 8.3 mph 29.0 mph 56 % 0.00 in
11:20 49.0 °F 34.0 °F 29.90 in SSW 6.3 mph 29.0 mph 56 % 0.00 in
11:25 49.0 °F 34.0 °F 29.90 in SSW 4.3 mph 29.0 mph 56 % 0.00 in
11:31 49.0 °F 33.5 °F 29.90 in WNW 6.5 mph 29.0 mph 55 % 0.00 in
11:36 48.8 °F 33.3 °F 29.89 in West 7.9 mph 29.0 mph 55 % 0.00 in
11:41 48.7 °F 33.2 °F 29.89 in WSW 4.9 mph 29.0 mph 55 % 0.00 in
11:46 48.5 °F 33.1 °F 29.89 in WSW 4.8 mph 29.0 mph 55 % 0.00 in
11:51 48.3 °F 32.9 °F 29.88 in SW 5.6 mph 29.0 mph 55 % 0.00 in
11:56 48.0 °F 33.0 °F 29.88 in West 5.7 mph 29.0 mph 56 % 0.00 in
12:04 47.9 °F 32.9 °F 29.89 in West 2.0 mph 10.0 mph 56 % 0.00 in
12:09 47.9 °F 32.5 °F 29.88 in WSW 5.0 mph 10.0 mph 55 % 0.00 in
12:14 47.7 °F 31.8 °F 29.88 in West 8.0 mph 12.0 mph 54 % 0.00 in
12:19 47.5 °F 31.7 °F 29.88 in WSW 5.0 mph 12.0 mph 54 % 0.00 in
12:24 47.4 °F 31.6 °F 29.87 in WSW 6.0 mph 12.0 mph 54 % 0.00 in
12:29 47.3 °F 31.5 °F 29.87 in WSW 6.0 mph 9.0 mph 54 % 0.00 in
12:34 47.3 °F 31.5 °F 29.87 in WSW 5.0 mph 12.0 mph 54 % 0.00 in
12:39 47.2 °F 31.4 °F 29.87 in WSW 4.1 mph 29.0 mph 54 % 0.00 in
12:44 47.2 °F 31.4 °F 29.87 in West 6.0 mph 9.0 mph 54 % 0.00 in
12:49 47.2 °F 31.8 °F 29.87 in West 3.0 mph 8.0 mph 55 % 0.00 in
12:54 47.3 °F 31.9 °F 29.87 in West 2.0 mph 7.0 mph 55 % 0.00 in
12:59 47.3 °F 31.9 °F 29.87 in NW 3.8 mph 29.0 mph 55 % 0.00 in
13:05 47.4 °F 32.0 °F 29.86 in West 2.9 mph 29.0 mph 55 % 0.00 in
13:10 47.6 °F 32.2 °F 29.87 in WSW 2.6 mph 29.0 mph 55 % 0.00 in
13:15 47.5 °F 31.2 °F 29.87 in WSW 5.3 mph 29.0 mph 53 % 0.00 in
13:20 47.5 °F 31.7 °F 29.87 in West 2.4 mph 29.0 mph 54 % 0.00 in
13:25 47.5 °F 31.2 °F 29.87 in SSW 2.2 mph 29.0 mph 53 % 0.00 in
13:30 47.5 °F 31.2 °F 29.87 in West 3.1 mph 29.0 mph 53 % 0.00 in
13:35 47.5 °F 30.7 °F 29.87 in West 5.3 mph 29.0 mph 52 % 0.00 in
13:40 47.2 °F 30.5 °F 29.86 in WNW 2.1 mph 29.0 mph 52 % 0.00 in
13:45 47.0 °F 30.3 °F 29.86 in WNW 3.2 mph 29.0 mph 52 % 0.00 in
13:50 46.8 °F 30.1 °F 29.87 in WNW 5.0 mph 29.0 mph 52 % 0.00 in
13:55 46.6 °F 29.9 °F 29.87 in West 4.9 mph 29.0 mph 52 % 0.00 in
14:00 46.6 °F 29.4 °F 29.87 in WSW 5.0 mph 29.0 mph 51 % 0.00 in
14:05 46.5 °F 29.8 °F 29.86 in West 3.1 mph 29.0 mph 52 % 0.00 in
14:10 46.3 °F 29.6 °F 29.86 in West 5.6 mph 29.0 mph 52 % 0.00 in
14:15 46.1 °F 29.4 °F 29.87 in WSW 3.2 mph 29.0 mph 52 % 0.00 in
14:20 46.0 °F 29.8 °F 29.87 in WSW 5.9 mph 29.0 mph 53 % 0.00 in
14:25 45.8 °F 29.6 °F 29.87 in WNW 4.1 mph 29.0 mph 53 % 0.00 in
14:31 45.7 °F 29.5 °F 29.87 in NW 2.8 mph 29.0 mph 53 % 0.00 in
14:36 45.5 °F 29.3 °F 29.88 in WNW 0.8 mph 29.0 mph 53 % 0.00 in
14:41 45.4 °F 29.3 °F 29.89 in West 4.3 mph 29.0 mph 53 % 0.00 in
14:46 45.3 °F 29.2 °F 29.89 in West 4.7 mph 29.0 mph 53 % 0.00 in
14:51 45.2 °F 29.1 °F 29.89 in WNW 2.4 mph 29.0 mph 53 % 0.00 in
14:56 45.2 °F 29.5 °F 29.89 in NW 4.6 mph 29.0 mph 54 % 0.00 in
15:01 45.2 °F 29.5 °F 29.90 in WNW 3.6 mph 29.0 mph 54 % 0.00 in
15:06 45.1 °F 29.9 °F 29.90 in WNW 6.1 mph 29.0 mph 55 % 0.00 in
15:11 45.1 °F 30.8 °F 29.91 in West 2.6 mph 29.0 mph 57 % 0.00 in
15:16 45.2 °F 30.9 °F 29.91 in WNW 2.7 mph 29.0 mph 57 % 0.00 in
15:22 45.1 °F 31.2 °F 29.91 in WNW 1.8 mph 29.0 mph 58 % 0.00 in
15:32 45.1 °F 32.0 °F 29.91 in NW 2.3 mph 29.0 mph 60 % 0.00 in
15:37 45.1 °F 32.4 °F 29.92 in West 5.5 mph 29.0 mph 61 % 0.00 in
15:47 45.0 °F 31.9 °F 29.92 in West 8.2 mph 29.0 mph 60 % 0.00 in
15:52 45.0 °F 32.3 °F 29.93 in WNW 7.6 mph 29.0 mph 61 % 0.00 in
15:57 45.0 °F 31.9 °F 29.93 in NW 5.1 mph 29.0 mph 60 % 0.00 in
16:02 45.0 °F 31.5 °F 29.93 in NW 5.7 mph 29.0 mph 59 % 0.00 in
16:08 45.0 °F 31.1 °F 29.93 in NNW 6.3 mph 29.0 mph 58 % 0.00 in
16:13 45.0 °F 31.9 °F 29.93 in NW 3.2 mph 29.0 mph 60 % 0.00 in
16:18 44.9 °F 31.0 °F 29.94 in WNW 2.8 mph 29.0 mph 58 % 0.00 in
16:23 44.8 °F 31.3 °F 29.94 in West 5.0 mph 29.0 mph 59 % 0.00 in
16:28 44.7 °F 30.8 °F 29.95 in WNW 4.8 mph 29.0 mph 58 % 0.00 in
16:33 44.6 °F 30.7 °F 29.95 in West 5.2 mph 29.0 mph 58 % 0.00 in
16:38 44.5 °F 31.1 °F 29.95 in North 7.1 mph 29.0 mph 59 % 0.00 in
16:43 44.5 °F 30.6 °F 29.95 in WNW 7.0 mph 29.0 mph 58 % 0.00 in
16:48 44.3 °F 30.9 °F 29.96 in NW 4.4 mph 29.0 mph 59 % 0.00 in
16:53 44.2 °F 30.3 °F 29.96 in NW 7.0 mph 29.0 mph 58 % 0.00 in
16:59 44.0 °F 31.0 °F 29.96 in WNW 7.9 mph 29.0 mph 60 % 0.00 in
17:04 43.9 °F 30.9 °F 29.97 in NW 8.5 mph 29.0 mph 60 % 0.00 in
17:09 43.7 °F 30.7 °F 29.97 in West 8.7 mph 29.0 mph 60 % 0.00 in
17:14 43.6 °F 30.6 °F 29.98 in West 7.2 mph 29.0 mph 60 % 0.00 in
17:19 43.4 °F 31.2 °F 29.98 in NW 7.7 mph 29.0 mph 62 % 0.00 in
17:24 43.4 °F 31.2 °F 29.98 in NNW 4.7 mph 29.0 mph 62 % 0.00 in
17:29 43.3 °F 31.1 °F 29.98 in NNW 4.6 mph 29.0 mph 62 % 0.00 in
17:34 43.2 °F 31.1 °F 29.98 in NW 5.4 mph 29.0 mph 62 % 0.00 in
17:39 43.1 °F 31.0 °F 29.99 in NW 4.0 mph 29.0 mph 62 % 0.00 in
17:44 43.1 °F 31.4 °F 29.99 in WNW 3.0 mph 29.0 mph 63 % 0.00 in
17:49 43.0 °F 30.9 °F 30.00 in NW 6.1 mph 29.0 mph 62 % 0.00 in
17:54 43.0 °F 31.6 °F 30.00 in WNW 5.0 mph 13.0 mph 64 % 0.00 in
17:59 43.0 °F 30.9 °F 30.00 in WNW 8.9 mph 29.0 mph 62 % 0.00 in
18:04 43.0 °F 30.9 °F 30.01 in West 3.9 mph 29.0 mph 62 % 0.00 in
18:10 43.0 °F 30.9 °F 30.01 in NNW 7.1 mph 29.0 mph 62 % 0.00 in
18:15 43.0 °F 30.9 °F 30.01 in NW 4.3 mph 29.0 mph 62 % 0.00 in
18:20 43.0 °F 31.3 °F 30.01 in WNW 6.1 mph 29.0 mph 63 % 0.00 in
18:25 43.0 °F 32.0 °F 30.01 in NW 6.8 mph 29.0 mph 65 % 0.00 in
18:30 43.0 °F 32.4 °F 30.01 in NW 3.7 mph 29.0 mph 66 % 0.00 in
18:35 42.9 °F 32.3 °F 30.01 in NW 6.4 mph 29.0 mph 66 % 0.00 in
18:40 42.9 °F 31.9 °F 30.01 in WNW 7.2 mph 29.0 mph 65 % 0.00 in
18:45 42.8 °F 31.5 °F 30.02 in WNW 5.1 mph 29.0 mph 64 % 0.00 in
18:50 42.6 °F 31.3 °F 30.02 in WNW 6.8 mph 29.0 mph 64 % 0.00 in
18:55 42.4 °F 31.5 °F 30.03 in NW 6.5 mph 29.0 mph 65 % 0.00 in
19:00 42.2 °F 31.3 °F 30.03 in West 5.2 mph 29.0 mph 65 % 0.00 in
19:05 42.0 °F 31.1 °F 30.03 in WNW 4.9 mph 29.0 mph 65 % 0.00 in
19:10 41.9 °F 31.0 °F 30.03 in WNW 5.3 mph 29.0 mph 65 % 0.00 in
19:15 41.8 °F 30.9 °F 30.04 in NW 10.3 mph 29.0 mph 65 % 0.00 in
19:21 41.7 °F 30.8 °F 30.04 in West 8.1 mph 29.0 mph 65 % 0.00 in
19:26 41.5 °F 30.6 °F 30.04 in WNW 6.3 mph 29.0 mph 65 % 0.00 in
19:31 41.5 °F 31.0 °F 30.04 in WNW 6.0 mph 29.0 mph 66 % 0.00 in
19:36 41.4 °F 30.9 °F 30.03 in NW 5.1 mph 29.0 mph 66 % 0.00 in
19:41 41.3 °F 31.2 °F 30.04 in WNW 5.5 mph 29.0 mph 67 % 0.00 in
19:46 41.2 °F 31.1 °F 30.04 in West 6.6 mph 29.0 mph 67 % 0.00 in
19:51 41.0 °F 30.9 °F 30.04 in WNW 9.2 mph 29.0 mph 67 % 0.00 in
19:56 41.0 °F 30.9 °F 30.04 in NW 9.3 mph 29.0 mph 67 % 0.00 in
20:01 40.9 °F 30.8 °F 30.04 in WNW 6.7 mph 29.0 mph 67 % 0.00 in
20:06 40.8 °F 30.7 °F 30.04 in WSW 5.1 mph 29.0 mph 67 % 0.00 in
20:11 40.7 °F 31.0 °F 30.05 in NW 2.8 mph 29.0 mph 68 % 0.00 in
20:16 40.6 °F 30.9 °F 30.05 in WNW 9.2 mph 29.0 mph 68 % 0.00 in
20:21 40.5 °F 30.8 °F 30.05 in WSW 4.2 mph 29.0 mph 68 % 0.00 in
20:26 40.5 °F 31.1 °F 30.05 in WNW 6.7 mph 29.0 mph 69 % 0.00 in
20:32 40.4 °F 31.0 °F 30.05 in West 7.1 mph 29.0 mph 69 % 0.00 in
20:37 40.4 °F 31.0 °F 30.05 in West 6.4 mph 29.0 mph 69 % 0.00 in
20:42 40.3 °F 31.3 °F 30.05 in WNW 5.8 mph 29.0 mph 70 % 0.00 in
20:47 40.3 °F 31.3 °F 30.06 in NW 5.1 mph 29.0 mph 70 % 0.00 in
20:52 40.2 °F 31.2 °F 30.06 in West 4.3 mph 29.0 mph 70 % 0.00 in
20:57 40.2 °F 31.2 °F 30.06 in West 5.5 mph 29.0 mph 70 % 0.00 in
21:02 40.1 °F 31.1 °F 30.06 in West 2.5 mph 29.0 mph 70 % 0.00 in
21:07 40.1 °F 31.1 °F 30.07 in WSW 3.6 mph 29.0 mph 70 % 0.00 in
21:12 40.1 °F 31.1 °F 30.07 in West 6.5 mph 29.0 mph 70 % 0.00 in
21:17 40.0 °F 31.4 °F 30.08 in NW 5.9 mph 29.0 mph 71 % 0.00 in
21:22 40.0 °F 31.4 °F 30.08 in WNW 6.2 mph 29.0 mph 71 % 0.00 in
21:27 40.0 °F 31.4 °F 30.09 in NW 6.9 mph 29.0 mph 71 % 0.00 in
21:32 40.0 °F 31.4 °F 30.09 in West 4.4 mph 29.0 mph 71 % 0.00 in
21:37 40.1 °F 31.4 °F 30.09 in NW 5.8 mph 29.0 mph 71 % 0.00 in
21:42 40.1 °F 31.8 °F 30.09 in WNW 5.7 mph 29.0 mph 72 % 0.00 in
21:52 40.1 °F 31.8 °F 30.10 in NW 4.5 mph 29.0 mph 72 % 0.00 in
21:57 40.1 °F 31.8 °F 30.10 in WNW 5.8 mph 29.0 mph 72 % 0.00 in
22:03 40.0 °F 31.7 °F 30.09 in WNW 6.2 mph 29.0 mph 72 % 0.00 in
22:08 40.0 °F 31.7 °F 30.10 in WNW 2.5 mph 29.0 mph 72 % 0.00 in
22:13 39.9 °F 31.6 °F 30.10 in WNW 6.3 mph 29.0 mph 72 % 0.00 in
22:18 39.9 °F 31.6 °F 30.11 in NW 5.8 mph 29.0 mph 72 % 0.00 in
22:23 39.9 °F 31.6 °F 30.11 in WNW 4.7 mph 29.0 mph 72 % 0.00 in
22:28 39.9 °F 31.6 °F 30.11 in NW 5.8 mph 29.0 mph 72 % 0.00 in
22:33 39.9 °F 31.6 °F 30.12 in WNW 8.4 mph 29.0 mph 72 % 0.00 in
22:38 39.9 °F 31.6 °F 30.12 in NW 5.1 mph 29.0 mph 72 % 0.00 in
22:43 39.9 °F 31.6 °F 30.13 in WNW 7.6 mph 29.0 mph 72 % 0.00 in
22:48 39.8 °F 31.8 °F 30.13 in West 5.6 mph 29.0 mph 73 % 0.00 in
22:53 39.8 °F 31.8 °F 30.13 in WNW 5.7 mph 29.0 mph 73 % 0.00 in
22:58 39.8 °F 31.8 °F 30.13 in WNW 2.8 mph 29.0 mph 73 % 0.00 in
23:03 39.8 °F 31.8 °F 30.13 in WNW 5.6 mph 29.0 mph 73 % 0.00 in
23:08 39.8 °F 31.8 °F 30.12 in NW 6.5 mph 29.0 mph 73 % 0.00 in
23:13 39.8 °F 31.8 °F 30.12 in WNW 3.3 mph 29.0 mph 73 % 0.00 in
23:19 39.7 °F 32.1 °F 30.12 in WNW 0.7 mph 29.0 mph 74 % 0.00 in
23:24 39.6 °F 32.0 °F 30.13 in WNW 2.3 mph 29.0 mph 74 % 0.00 in
23:29 39.5 °F 31.9 °F 30.13 in WNW 3.5 mph 29.0 mph 74 % 0.00 in
23:34 39.5 °F 31.9 °F 30.14 in NW 5.3 mph 29.0 mph 74 % 0.00 in
23:39 39.4 °F 31.8 °F 30.14 in WNW 4.6 mph 29.0 mph 74 % 0.00 in
23:44 39.4 °F 31.8 °F 30.14 in WNW 3.5 mph 29.0 mph 74 % 0.00 in
23:49 39.3 °F 31.7 °F 30.15 in NW 5.7 mph 29.0 mph 74 % 0.00 in
23:59 39.3 °F 31.7 °F 30.15 in WNW 4.8 mph 29.0 mph 74 % 0.00 in
Crab Meadow Weather
Compliments of Weather Underground - 2.75 mb

Script developed by  Jim McMurry - jmcmurry@mwt.net Adapted for the template by  Wim van der Kuil - Leuven-Template.eu

Extremes: Currently the driest state is Nevada with an annual rainfall of only nine inches.